When you browse on this site, cookies collect data to enhance your experience and personalize the content and advertising you see.
Visit our Privacy Policy to learn more. By continuing to use the site, you agree to this use of cookies and data.
  • In United Kingdom
  • List of Countries
  • For 7 days
  • Water Temperature
  • Satellite Maps
  • Weather Map
  • Weather Widgets
  • user-avatar
    Login

    Hourly Weather Livry-Gargan

    Today, 16 February, Saturday

    Time Temperature Precipitation Wind Pressure Humidity
    00:00 +8°C° 0 mm 1 mps 765 mmHg 74%
    01:00 +7°C° 0 mm 1 mps 765 mmHg 75%
    02:00 +7°C° 0 mm 1 mps 765 mmHg 75%
    03:00 +7°C° 0 mm 1 mps 765 mmHg 76%
    04:00 +5°C° 0 mm 2 mps 765 mmHg 77%
    05:00 +5°C° 0 mm 2 mps 765 mmHg 79%
    06:00 +5°C° 0 mm 2 mps 765 mmHg 80%
    07:00 +6°C° 0 mm 2 mps 765 mmHg 77%
    08:00 +6°C° 0 mm 2 mps 765 mmHg 74%
    09:00 +7°C° 0 mm 2 mps 765 mmHg 72%
    10:00 +8°C° 0 mm 2 mps 765 mmHg 67%
    11:00 +10°C° 0 mm 2 mps 765 mmHg 62%
    12:00 +12°C° 0 mm 2 mps 765 mmHg 58%
    13:00 +13°C° 0 mm 2 mps 765 mmHg 57%
    14:00 +14°C° 0 mm 2 mps 764 mmHg 56%
    15:00 +14°C° 0 mm 2 mps 764 mmHg 56%
    16:00 +13°C° 0 mm 2 mps 764 mmHg 61%
    17:00 +12°C° 0 mm 2 mps 764 mmHg 66%
    18:00 +10°C° 0 mm 2 mps 764 mmHg 71%
    19:00 +9°C° 0 mm 2 mps 763 mmHg 72%
    20:00 +9°C° 0 mm 2 mps 763 mmHg 73%
    21:00 +8°C° 0 mm 2 mps 763 mmHg 74%
    22:00 +8°C° 0 mm 2 mps 763 mmHg 74%
    23:00 +7°C° 0 mm 2 mps 763 mmHg 74%

    Tomorrow, 17 February, Sunday

    Time Temperature Precipitation Wind Pressure Humidity
    00:00 +7°C° 0 mm 2 mps 762 mmHg 74%
    01:00 +7°C° 0 mm 2 mps 762 mmHg 73%
    02:00 +7°C° 0 mm 2 mps 762 mmHg 71%
    03:00 +6°C° 0 mm 2 mps 761 mmHg 70%
    04:00 +5°C° 0 mm 3 mps 761 mmHg 70%
    05:00 +5°C° 0 mm 3 mps 761 mmHg 69%
    06:00 +5°C° 0 mm 3 mps 761 mmHg 68%
    07:00 +5°C° 0 mm 3 mps 761 mmHg 64%
    08:00 +6°C° 0 mm 4 mps 761 mmHg 59%
    09:00 +7°C° 0 mm 4 mps 761 mmHg 54%
    10:00 +8°C° 0 mm 4 mps 761 mmHg 51%
    11:00 +11°C° 0 mm 4 mps 761 mmHg 47%
    12:00 +12°C° 0 mm 4 mps 760 mmHg 44%
    13:00 +13°C° 0 mm 4 mps 760 mmHg 43%
    14:00 +14°C° 0 mm 4 mps 760 mmHg 43%
    15:00 +14°C° 0 mm 4 mps 759 mmHg 43%
    16:00 +13°C° 0 mm 3 mps 760 mmHg 48%
    17:00 +12°C° 0 mm 3 mps 760 mmHg 53%
    18:00 +10°C° 0 mm 2 mps 760 mmHg 58%
    19:00 +10°C° 0 mm 2 mps 760 mmHg 61%
    20:00 +9°C° 0 mm 2 mps 760 mmHg 64%
    21:00 +9°C° 0 mm 2 mps 760 mmHg 68%
    22:00 +8°C° 0 mm 2 mps 760 mmHg 70%
    23:00 +8°C° 0 mm 2 mps 760 mmHg 72%

    Day after tomorrow, 18 February, Monday

    Time Temperature Precipitation Wind Pressure Humidity
    00:00 +8°C° 0 mm 2 mps 760 mmHg 74%
    01:00 +7°C° 0 mm 2 mps 759 mmHg 75%
    02:00 +7°C° 0 mm 2 mps 759 mmHg 77%
    03:00 +7°C° 0 mm 2 mps 759 mmHg 79%
    04:00 +6°C° 0 mm 2 mps 759 mmHg 81%
    05:00 +6°C° 0 mm 2 mps 759 mmHg 83%
    06:00 +6°C° 0 mm 2 mps 759 mmHg 85%
    07:00 +6°C° 0 mm 2 mps 759 mmHg 82%
    08:00 +7°C° 0 mm 2 mps 759 mmHg 78%
    09:00 +8°C° 0 mm 2 mps 759 mmHg 74%
    10:00 +9°C° 0 mm 3 mps 759 mmHg 69%
    11:00 +10°C° 0 mm 3 mps 759 mmHg 63%
    12:00 +11°C° 0 mm 3 mps 759 mmHg 58%
    13:00 +12°C° 0 mm 3 mps 759 mmHg 57%
    14:00 +12°C° 0 mm 3 mps 759 mmHg 56%
    15:00 +13°C° 0 mm 3 mps 758 mmHg 55%
    16:00 +13°C° 0 mm 2 mps 758 mmHg 60%
    17:00 +12°C° 0 mm 2 mps 759 mmHg 65%
    18:00 +10°C° 0 mm 2 mps 759 mmHg 70%
    19:00 +10°C° 0 mm 2 mps 759 mmHg 72%
    20:00 +9°C° 0 mm 2 mps 759 mmHg 75%
    21:00 +10°C° 0 mm 1 mps 759 mmHg 77%
    22:00 +10°C° 0 mm 1 mps 759 mmHg 77%
    23:00 +10°C° 0 mm 1 mps 759 mmHg 78%

    19 February, Tuesday

    Time Temperature Precipitation Wind Pressure Humidity
    00:00 +10°C° 0 mm 1 mps 760 mmHg 78%
    01:00 +9°C° 0 mm 1 mps 759 mmHg 80%
    02:00 +9°C° 0 mm 1 mps 759 mmHg 82%
    03:00 +9°C° 0 mm 1 mps 759 mmHg 84%
    04:00 +9°C° 0.1 mm 1 mps 760 mmHg 86%
    05:00 +9°C° 0.1 mm 1 mps 760 mmHg 89%
    06:00 +9°C° 0.1 mm 1 mps 760 mmHg 92%
    07:00 +9°C° 0 mm 1 mps 761 mmHg 90%
    08:00 +9°C° 0 mm 1 mps 761 mmHg 87%
    09:00 +10°C° 0 mm 1 mps 762 mmHg 85%
    10:00 +11°C° 0 mm 1 mps 762 mmHg 78%
    11:00 +11°C° 0 mm 1 mps 762 mmHg 72%
    12:00 +12°C° 0 mm 1 mps 762 mmHg 65%
    13:00 +13°C° 0 mm 1 mps 762 mmHg 63%
    14:00 +13°C° 0 mm 1 mps 761 mmHg 60%
    15:00 +13°C° 0 mm 1 mps 761 mmHg 58%
    16:00 +13°C° 0 mm 1 mps 762 mmHg 60%
    17:00 +12°C° 0 mm 1 mps 762 mmHg 61%
    18:00 +11°C° 0 mm 1 mps 762 mmHg 63%
    19:00 +11°C° 0 mm 1 mps 762 mmHg 65%
    20:00 +10°C° 0 mm 1 mps 762 mmHg 67%
    21:00 +10°C° 0 mm 1 mps 763 mmHg 69%
    22:00 +9°C° 0 mm 1 mps 763 mmHg 72%
    23:00 +9°C° 0 mm 1 mps 763 mmHg 76%

    20 February, Wednesday

    Time Temperature Precipitation Wind Pressure Humidity
    00:00 +8°C° 0 mm 1 mps 763 mmHg 79%
    01:00 +8°C° 0 mm 1 mps 763 mmHg 81%
    02:00 +7°C° 0 mm 1 mps 763 mmHg 83%
    03:00 +7°C° 0 mm 1 mps 763 mmHg 85%
    04:00 +7°C° 0 mm 1 mps 763 mmHg 86%
    05:00 +7°C° 0 mm 1 mps 763 mmHg 87%
    06:00 +6°C° 0 mm 1 mps 763 mmHg 88%
    07:00 +6°C° 0 mm 2 mps 763 mmHg 86%
    08:00 +7°C° 0 mm 2 mps 763 mmHg 83%
    09:00 +8°C° 0 mm 2 mps 764 mmHg 81%
    10:00 +9°C° 0 mm 2 mps 764 mmHg 75%
    11:00 +12°C° 0 mm 2 mps 764 mmHg 70%
    12:00 +13°C° 0 mm 2 mps 764 mmHg 65%
    13:00 +14°C° 0 mm 2 mps 764 mmHg 63%
    14:00 +14°C° 0 mm 2 mps 763 mmHg 62%
    15:00 +15°C° 0 mm 2 mps 763 mmHg 60%
    16:00 +14°C° 0 mm 2 mps 763 mmHg 64%
    17:00 +13°C° 0 mm 1 mps 763 mmHg 68%
    18:00 +12°C° 0 mm 1 mps 764 mmHg 73%
    19:00 +11°C° 0 mm 1 mps 764 mmHg 75%
    20:00 +11°C° 0 mm 1 mps 764 mmHg 77%
    21:00 +9°C° 0 mm 2 mps 764 mmHg 78%
    22:00 +10°C° 0 mm 1 mps 764 mmHg 80%
    23:00 +10°C° 0 mm 1 mps 764 mmHg 81%

    21 February, Thursday

    Time Temperature Precipitation Wind Pressure Humidity
    00:00 +9°C° 0 mm 1 mps 764 mmHg 82%
    01:00 +9°C° 0 mm 1 mps 764 mmHg 83%
    02:00 +9°C° 0 mm 1 mps 764 mmHg 84%
    03:00 +9°C° 0 mm 1 mps 764 mmHg 85%
    04:00 +8°C° 0 mm 1 mps 764 mmHg 85%
    05:00 +8°C° 0 mm 1 mps 765 mmHg 86%
    06:00 +8°C° 0 mm 1 mps 765 mmHg 86%
    07:00 +9°C° 0 mm 1 mps 765 mmHg 83%
    08:00 +9°C° 0 mm 1 mps 765 mmHg 79%
    09:00 +10°C° 0 mm 1 mps 765 mmHg 76%
    10:00 +12°C° 0 mm 1 mps 765 mmHg 70%
    11:00 +13°C° 0 mm 1 mps 765 mmHg 64%
    12:00 +14°C° 0 mm 1 mps 765 mmHg 58%
    13:00 +15°C° 0 mm 1 mps 765 mmHg 56%
    14:00 +15°C° 0 mm 1 mps 765 mmHg 54%
    15:00 +16°C° 0 mm 1 mps 765 mmHg 52%
    16:00 +15°C° 0 mm 1 mps 765 mmHg 57%
    17:00 +13°C° 0 mm 1 mps 765 mmHg 61%
    18:00 +12°C° 0 mm 1 mps 765 mmHg 66%
    19:00 +12°C° 0 mm 1 mps 765 mmHg 68%
    20:00 +11°C° 0 mm 1 mps 765 mmHg 70%
    21:00 +11°C° 0 mm 1 mps 765 mmHg 73%
    22:00 +10°C° 0 mm 1 mps 765 mmHg 75%
    23:00 +10°C° 0 mm 1 mps 765 mmHg 76%
    Show more